Time,TemperatureF,DewpointF,PressureIn,WindDirection,WindDirectionDegrees,WindSpeedMPH,WindSpeedGustMPH,Humidity,HourlyPrecipIn,Conditions,Clouds,dailyrainin,SoftwareType,DateUTC
2013-05-23 01:40:00,60.0,56.5,29.48,WNW,298,7.0,12.0,88,0.01,RA,,0.02,WeatherDisplay:10.37,2013-05-22 23:40:00,
2013-05-23 01:50:00,59.7,56.7,29.48,WNW,283,7.0,13.0,90,0.00,CLR,,0.02,WeatherDisplay:10.37,2013-05-22 23:50:00,
2013-05-23 02:00:00,59.2,56.6,29.48,West,273,8.0,14.0,91,0.00,CLR,,0.02,WeatherDisplay:10.37,2013-05-23 00:00:00,
2013-05-23 02:10:00,59.0,56.4,29.47,West,264,6.0,14.0,91,0.00,CLR,,0.02,WeatherDisplay:10.37,2013-05-23 00:10:00,
2013-05-23 02:20:00,58.9,56.0,29.46,West,279,5.0,12.0,90,0.01,RA,,0.02,WeatherDisplay:10.37,2013-05-23 00:20:00,
2013-05-23 02:30:00,59.3,55.4,29.46,WNW,284,5.0,13.0,87,0.00,CLR,,0.02,WeatherDisplay:10.37,2013-05-23 00:30:00,
2013-05-23 02:40:00,60.0,55.2,29.45,WNW,287,2.0,8.0,84,0.00,CLR,,0.02,WeatherDisplay:10.37,2013-05-23 00:40:00,
2013-05-23 02:50:00,60.4,55.5,29.44,NNW,332,5.0,10.0,84,0.00,CLR,,0.02,WeatherDisplay:10.37,2013-05-23 00:50:00,
2013-05-23 03:00:00,60.0,55.5,29.44,NW,323,3.0,9.0,85,0.00,CLR,,0.02,WeatherDisplay:10.37,2013-05-23 01:00:00,
2013-05-23 03:10:00,59.8,55.9,29.44,West,280,2.0,7.0,87,0.00,CLR,,0.02,WeatherDisplay:10.37,2013-05-23 01:10:00,
2013-05-23 03:20:00,60.0,55.8,29.43,NW,314,2.0,7.0,86,0.01,RA,,0.03,WeatherDisplay:10.37,2013-05-23 01:20:00,
2013-05-23 03:30:00,60.1,55.6,29.43,NNW,333,2.0,6.0,85,0.00,CLR,,0.03,WeatherDisplay:10.37,2013-05-23 01:30:00,
2013-05-23 03:40:00,60.4,55.5,29.42,NNW,330,1.0,6.0,84,0.00,CLR,,0.03,WeatherDisplay:10.37,2013-05-23 01:40:00,
2013-05-23 03:50:00,60.4,55.5,29.43,NNW,337,1.0,7.0,84,0.00,CLR,,0.03,WeatherDisplay:10.37,2013-05-23 01:50:00,
2013-05-23 04:00:00,60.2,55.7,29.44,NW,314,1.0,5.0,85,0.00,CLR,,0.03,WeatherDisplay:10.37,2013-05-23 02:00:00,
2013-05-23 04:20:00,59.9,56.0,29.47,SSW,205,3.0,8.0,87,0.00,CLR,,0.03,WeatherDisplay:10.37,2013-05-23 02:20:00,
2013-05-23 04:30:00,59.7,56.4,29.46,WSW,242,5.0,10.0,89,0.00,CLR,,0.03,WeatherDisplay:10.37,2013-05-23 02:30:00,
2013-05-23 04:40:00,59.8,56.2,29.46,SW,232,3.0,12.0,88,0.00,CLR,,0.03,WeatherDisplay:10.37,2013-05-23 02:40:00,
2013-05-23 04:50:00,59.9,56.4,29.46,WSW,249,7.0,14.0,88,0.00,CLR,,0.03,WeatherDisplay:10.37,2013-05-23 02:50:00,
2013-05-23 05:00:00,60.2,56.3,29.46,WSW,245,8.0,15.0,87,0.00,CLR,,0.03,WeatherDisplay:10.37,2013-05-23 03:00:00,
2013-05-23 05:10:00,60.2,56.6,29.46,WSW,253,8.0,14.0,88,0.00,CLR,,0.03,WeatherDisplay:10.37,2013-05-23 03:10:00,
2013-05-23 05:20:00,60.1,56.5,29.46,WSW,249,8.0,21.0,88,0.00,CLR,,0.03,WeatherDisplay:10.37,2013-05-23 03:20:00,
2013-05-23 05:30:00,60.1,56.5,29.46,WSW,246,8.0,13.0,88,0.00,CLR,,0.03,WeatherDisplay:10.37,2013-05-23 03:30:00,
2013-05-23 05:40:00,60.2,56.9,29.47,SW,230,5.0,14.0,89,0.00,CLR,,0.03,WeatherDisplay:10.37,2013-05-23 03:40:00,
2013-05-23 05:50:00,60.4,56.8,29.47,SW,236,5.0,17.0,88,0.00,CLR,,0.03,WeatherDisplay:10.37,2013-05-23 03:50:00,
2013-05-23 06:00:00,60.7,57.1,29.48,WSW,249,7.0,17.0,88,0.00,CLR,,0.03,WeatherDisplay:10.37,2013-05-23 04:00:00,
2013-05-23 06:10:00,60.8,57.5,29.48,WSW,238,5.0,14.0,89,0.00,CLR,,0.03,WeatherDisplay:10.37,2013-05-23 04:10:00,
2013-05-23 06:20:00,60.8,57.8,29.48,WSW,252,2.0,6.0,90,0.00,CLR,,0.03,WeatherDisplay:10.37,2013-05-23 04:20:00,
2013-05-23 06:30:00,60.8,57.8,29.48,WSW,246,1.0,6.0,90,0.00,CLR,,0.03,WeatherDisplay:10.37,2013-05-23 04:30:00,
2013-05-23 06:40:00,61.0,58.4,29.49,South,188,1.0,2.0,91,0.01,RA,,0.04,WeatherDisplay:10.37,2013-05-23 04:40:00,
2013-05-23 06:50:00,61.1,58.5,29.49,SSW,201,2.0,5.0,91,0.02,RA,,0.06,WeatherDisplay:10.37,2013-05-23 04:50:00,
2013-05-23 07:00:00,60.9,58.6,29.49,WSW,243,5.0,12.0,92,0.00,CLR,,0.06,WeatherDisplay:10.37,2013-05-23 05:00:00,
2013-05-23 07:10:00,61.2,58.2,29.49,WSW,243,5.0,10.0,90,0.00,CLR,,0.06,WeatherDisplay:10.37,2013-05-23 05:10:00,
2013-05-23 07:20:00,61.7,58.7,29.50,SW,215,1.0,7.0,90,0.00,CLR,,0.06,WeatherDisplay:10.37,2013-05-23 05:20:00,
2013-05-23 07:30:00,61.6,58.3,29.50,WSW,247,5.0,12.0,89,0.00,CLR,,0.06,WeatherDisplay:10.37,2013-05-23 05:30:00,
2013-05-23 07:40:00,61.7,58.4,29.50,WSW,238,3.0,10.0,89,0.00,CLR,,0.06,WeatherDisplay:10.37,2013-05-23 05:40:00,
2013-05-23 07:50:00,61.6,58.3,29.50,WSW,244,6.0,12.0,89,0.00,CLR,,0.06,WeatherDisplay:10.37,2013-05-23 05:50:00,
2013-05-23 08:00:00,61.7,57.8,29.50,WSW,250,3.0,13.0,87,0.00,CLR,,0.06,WeatherDisplay:10.37,2013-05-23 06:00:00,
2013-05-23 08:10:00,62.0,58.1,29.50,WSW,245,5.0,12.0,87,0.00,CLR,,0.06,WeatherDisplay:10.37,2013-05-23 06:10:00,
2013-05-23 08:20:00,62.2,58.6,29.51,SW,234,3.0,10.0,88,0.00,CLR,,0.06,WeatherDisplay:10.37,2013-05-23 06:20:00,
2013-05-23 08:30:00,62.5,58.6,29.51,SW,232,5.0,12.0,87,0.00,CLR,,0.06,WeatherDisplay:10.37,2013-05-23 06:30:00,
2013-05-23 08:40:00,63.0,58.4,29.51,WSW,245,5.0,16.0,85,0.00,CLR,,0.06,WeatherDisplay:10.37,2013-05-23 06:40:00,
2013-05-23 08:50:00,63.5,58.9,29.52,WSW,243,3.0,13.0,85,0.00,CLR,,0.06,WeatherDisplay:10.37,2013-05-23 06:50:00,
2013-05-23 09:00:00,63.9,58.3,29.52,WSW,251,5.0,14.0,82,0.00,CLR,,0.06,WeatherDisplay:10.37,2013-05-23 07:00:00,
2013-05-23 09:10:00,63.9,58.0,29.52,SW,234,7.0,13.0,81,0.01,RA,,0.07,WeatherDisplay:10.37,2013-05-23 07:10:00,
2013-05-23 09:20:00,64.1,57.8,29.52,SW,224,6.0,15.0,80,0.00,,,0.07,WeatherDisplay:10.37,2013-05-23 07:20:00,
2013-05-23 09:30:00,64.6,57.9,29.53,SW,225,3.0,15.0,79,0.00,CLR,,0.07,WeatherDisplay:10.37,2013-05-23 07:30:00,
2013-05-23 09:40:00,65.0,57.6,29.53,SW,229,2.0,14.0,77,0.00,CLR,,0.07,WeatherDisplay:10.37,2013-05-23 07:40:00,
2013-05-23 09:50:00,64.9,56.5,29.53,WSW,244,7.0,14.0,74,0.00,CLR,,0.07,WeatherDisplay:10.37,2013-05-23 07:50:00,
2013-05-23 10:00:00,64.7,57.0,29.54,SW,221,5.0,13.0,76,0.00,CLR,,0.07,WeatherDisplay:10.37,2013-05-23 08:00:00,
2013-05-23 10:10:00,65.4,57.3,29.54,SW,230,2.0,10.0,75,0.00,CLR,,0.07,WeatherDisplay:10.37,2013-05-23 08:10:00,
2013-05-23 10:20:00,65.4,57.2,29.54,SW,233,6.0,13.0,75,0.00,CLR,,0.07,WeatherDisplay:10.37,2013-05-23 08:20:00,
2013-05-23 10:30:00,65.2,57.1,29.55,WSW,244,3.0,12.0,75,0.00,CLR,,0.07,WeatherDisplay:10.37,2013-05-23 08:30:00,
2013-05-23 10:40:00,65.2,57.1,29.55,SW,225,6.0,16.0,75,0.00,CLR,,0.07,WeatherDisplay:10.37,2013-05-23 08:40:00,
2013-05-23 10:50:00,64.9,57.2,29.56,SW,218,5.0,13.0,76,0.00,CLR,,0.07,WeatherDisplay:10.37,2013-05-23 08:50:00,
2013-05-23 11:00:00,64.7,57.3,29.56,SW,228,5.0,12.0,77,0.00,CLR,,0.07,WeatherDisplay:10.37,2013-05-23 09:00:00,
2013-05-23 11:10:00,64.4,56.3,29.56,SW,224,3.0,12.0,75,0.00,CLR,,0.07,WeatherDisplay:10.37,2013-05-23 09:10:00,
2013-05-23 11:20:00,65.2,56.0,29.57,SW,226,6.0,14.0,72,0.00,CLR,,0.07,WeatherDisplay:10.37,2013-05-23 09:20:00,
2013-05-23 11:30:00,65.4,56.1,29.57,SW,224,6.0,16.0,72,0.00,CLR,,0.07,WeatherDisplay:10.37,2013-05-23 09:30:00,
2013-05-23 11:40:00,65.2,56.3,29.57,SW,230,5.0,16.0,73,0.00,CLR,,0.07,WeatherDisplay:10.37,2013-05-23 09:40:00,
2013-05-23 11:50:00,65.8,57.3,29.57,SW,225,1.0,12.0,74,0.00,CLR,,0.07,WeatherDisplay:10.37,2013-05-23 09:50:00,
2013-05-23 12:00:00,66.5,56.8,29.57,SW,215,5.0,15.0,71,0.00,CLR,,0.07,WeatherDisplay:10.37,2013-05-23 10:00:00,
2013-05-23 12:10:00,66.1,56.4,29.58,SW,231,6.0,13.0,71,0.00,CLR,,0.07,WeatherDisplay:10.37,2013-05-23 10:10:00,
2013-05-23 12:20:00,65.9,56.6,29.58,SW,217,5.0,16.0,72,0.00,CLR,,0.07,WeatherDisplay:10.37,2013-05-23 10:20:00,
2013-05-23 12:30:00,65.7,55.3,29.58,SW,232,7.0,15.0,69,0.00,CLR,,0.07,WeatherDisplay:10.37,2013-05-23 10:30:00,
2013-05-23 12:40:00,66.3,54.6,29.58,SW,216,3.0,12.0,66,0.00,CLR,,0.07,WeatherDisplay:10.37,2013-05-23 10:40:00,
2013-05-23 12:50:00,66.2,53.7,29.58,SW,227,8.0,15.0,64,0.00,CLR,,0.07,WeatherDisplay:10.37,2013-05-23 10:50:00,
2013-05-23 13:00:00,66.4,53.0,29.58,SW,229,6.0,16.0,62,0.00,CLR,,0.07,WeatherDisplay:10.37,2013-05-23 11:00:00,
2013-05-23 13:10:00,66.6,54.9,29.58,SW,226,6.0,12.0,66,0.00,CLR,,0.07,WeatherDisplay:10.37,2013-05-23 11:10:00,
2013-05-23 13:20:00,66.8,55.9,29.58,SW,229,3.0,12.0,68,0.00,CLR,,0.07,WeatherDisplay:10.37,2013-05-23 11:20:00,
2013-05-23 13:30:00,66.4,55.9,29.58,WSW,239,6.0,14.0,69,0.00,CLR,,0.07,WeatherDisplay:10.37,2013-05-23 11:30:00,
2013-05-23 13:40:00,65.9,54.6,29.59,SW,225,7.0,17.0,67,0.00,CLR,,0.07,WeatherDisplay:10.37,2013-05-23 11:40:00,
2013-05-23 13:50:00,66.6,54.5,29.59,SW,220,7.0,13.0,65,0.00,CLR,,0.07,WeatherDisplay:10.37,2013-05-23 11:50:00,
2013-05-23 14:00:00,67.3,52.9,29.59,SSW,211,7.0,15.0,60,0.00,CLR,,0.07,WeatherDisplay:10.37,2013-05-23 12:00:00,
2013-05-23 14:10:00,67.5,54.9,29.58,SW,218,5.0,13.0,64,0.00,CLR,,0.07,WeatherDisplay:10.37,2013-05-23 12:10:00,
2013-05-23 14:20:00,66.8,54.2,29.59,SSW,208,6.0,13.0,64,0.00,CLR,,0.07,WeatherDisplay:10.37,2013-05-23 12:20:00,
2013-05-23 14:30:00,67.0,54.8,29.59,SW,227,7.0,16.0,65,0.00,CLR,,0.07,WeatherDisplay:10.37,2013-05-23 12:30:00,
2013-05-23 14:40:00,66.3,55.4,29.59,SW,236,7.0,13.0,68,0.00,CLR,,0.07,WeatherDisplay:10.37,2013-05-23 12:40:00,
2013-05-23 14:50:00,66.0,54.7,29.59,SW,224,3.0,14.0,67,0.00,CLR,,0.07,WeatherDisplay:10.37,2013-05-23 12:50:00,
2013-05-23 15:00:00,67.0,55.3,29.59,SW,232,6.0,13.0,66,0.00,CLR,,0.07,WeatherDisplay:10.37,2013-05-23 13:00:00,
2013-05-23 15:10:00,65.9,55.0,29.58,SW,226,5.0,15.0,68,0.00,CLR,,0.07,WeatherDisplay:10.37,2013-05-23 13:10:00,
2013-05-23 15:20:00,65.0,55.0,29.59,WSW,243,7.0,14.0,70,0.00,CLR,,0.07,WeatherDisplay:10.37,2013-05-23 13:20:00,
2013-05-23 15:30:00,64.4,54.4,29.59,WSW,242,9.0,16.0,70,0.00,CLR,,0.07,WeatherDisplay:10.37,2013-05-23 13:30:00,
2013-05-23 15:40:00,64.6,55.0,29.59,WSW,242,3.0,14.0,71,0.00,CLR,,0.07,WeatherDisplay:10.37,2013-05-23 13:40:00,
2013-05-23 15:50:00,65.2,54.8,29.59,SW,230,5.0,14.0,69,0.00,CLR,,0.07,WeatherDisplay:10.37,2013-05-23 13:50:00,
2013-05-23 16:00:00,65.4,55.8,29.59,SW,235,3.0,13.0,71,0.00,CLR,,0.07,WeatherDisplay:10.37,2013-05-23 14:00:00,
2013-05-23 16:10:00,65.1,55.1,29.59,WSW,240,5.0,15.0,70,0.00,CLR,,0.07,WeatherDisplay:10.37,2013-05-23 14:10:00,
2013-05-23 16:20:00,64.4,55.5,29.59,WSW,242,9.0,14.0,73,0.00,CLR,,0.07,WeatherDisplay:10.37,2013-05-23 14:20:00,
2013-05-23 16:30:00,64.3,55.4,29.59,WSW,247,7.0,16.0,73,0.00,CLR,,0.07,WeatherDisplay:10.37,2013-05-23 14:30:00,
2013-05-23 16:40:00,64.0,54.8,29.60,WSW,240,6.0,14.0,72,0.00,CLR,,0.07,WeatherDisplay:10.37,2013-05-23 14:40:00,
2013-05-23 16:50:00,63.1,55.0,29.60,WSW,241,5.0,15.0,75,0.00,CLR,,0.07,WeatherDisplay:10.37,2013-05-23 14:50:00,
2013-05-23 17:00:00,62.5,55.2,29.60,WSW,247,3.0,12.0,77,0.00,CLR,,0.07,WeatherDisplay:10.37,2013-05-23 15:00:00,
2013-05-23 17:10:00,61.9,55.7,29.60,WSW,248,6.0,13.0,80,0.00,CLR,,0.07,WeatherDisplay:10.37,2013-05-23 15:10:00,
2013-05-23 17:20:00,61.4,55.2,29.60,WSW,257,6.0,14.0,80,0.00,CLR,,0.07,WeatherDisplay:10.37,2013-05-23 15:20:00,
2013-05-23 17:30:00,61.8,54.9,29.60,WSW,243,8.0,14.0,78,0.00,CLR,,0.07,WeatherDisplay:10.37,2013-05-23 15:30:00,
2013-05-23 17:40:00,62.0,55.8,29.61,SW,235,1.0,13.0,80,0.00,CLR,,0.07,WeatherDisplay:10.37,2013-05-23 15:40:00,
2013-05-23 17:50:00,61.9,55.0,29.61,WSW,243,5.0,16.0,78,0.00,CLR,,0.07,WeatherDisplay:10.37,2013-05-23 15:50:00,
2013-05-23 18:00:00,62.1,55.2,29.61,SW,232,3.0,12.0,78,0.00,CLR,,0.07,WeatherDisplay:10.37,2013-05-23 16:00:00,
2013-05-23 18:10:00,62.1,55.2,29.61,WSW,240,5.0,12.0,78,0.00,CLR,,0.07,WeatherDisplay:10.37,2013-05-23 16:10:00,
2013-05-23 18:20:00,62.1,55.2,29.61,WSW,250,5.0,10.0,78,0.00,CLR,,0.07,WeatherDisplay:10.37,2013-05-23 16:20:00,
2013-05-23 18:30:00,61.6,55.0,29.61,WSW,256,7.0,14.0,79,0.00,CLR,,0.07,WeatherDisplay:10.37,2013-05-23 16:30:00,
2013-05-23 18:40:00,61.2,54.9,29.62,WSW,254,7.0,12.0,80,0.00,CLR,,0.07,WeatherDisplay:10.37,2013-05-23 16:40:00,
2013-05-23 18:50:00,61.2,55.3,29.62,SW,234,2.0,10.0,81,0.00,CLR,,0.07,WeatherDisplay:10.37,2013-05-23 16:50:00,
2013-05-23 19:00:00,61.4,55.2,29.62,WSW,244,6.0,12.0,80,0.00,CLR,,0.07,WeatherDisplay:10.37,2013-05-23 17:00:00,
2013-05-23 19:10:00,61.6,55.4,29.62,WSW,244,1.0,10.0,80,0.00,CLR,,0.07,WeatherDisplay:10.37,2013-05-23 17:10:00,
2013-05-23 19:20:00,61.3,54.7,29.62,WSW,250,6.0,12.0,79,0.00,CLR,,0.07,WeatherDisplay:10.37,2013-05-23 17:20:00,
2013-05-23 19:30:00,61.6,55.4,29.63,WSW,242,2.0,9.0,80,0.00,CLR,,0.07,WeatherDisplay:10.37,2013-05-23 17:30:00,
2013-05-23 19:40:00,61.3,55.8,29.63,WSW,252,5.0,10.0,82,0.00,CLR,,0.07,WeatherDisplay:10.37,2013-05-23 17:40:00,
2013-05-23 19:50:00,61.3,56.0,29.63,WSW,248,5.0,10.0,83,0.00,CLR,,0.07,WeatherDisplay:10.37,2013-05-23 17:50:00,
2013-05-23 20:00:00,61.3,56.4,29.64,West,265,3.0,7.0,84,0.00,CLR,,0.07,WeatherDisplay:10.37,2013-05-23 18:00:00,
2013-05-23 20:10:00,61.5,56.6,29.64,WNW,302,0.0,6.0,84,0.00,CLR,,0.07,WeatherDisplay:10.37,2013-05-23 18:10:00,
2013-05-23 20:20:00,61.7,56.8,29.65,West,261,1.0,9.0,84,0.00,CLR,,0.07,WeatherDisplay:10.37,2013-05-23 18:20:00,
2013-05-23 20:30:00,61.8,56.9,29.65,West,270,1.0,7.0,84,0.00,CLR,,0.07,WeatherDisplay:10.37,2013-05-23 18:30:00,
2013-05-23 20:40:00,61.7,56.8,29.65,SW,230,5.0,8.0,84,0.00,CLR,,0.07,WeatherDisplay:10.37,2013-05-23 18:40:00,
2013-05-23 20:50:00,61.7,56.8,29.66,WSW,237,2.0,6.0,84,0.00,CLR,,0.07,WeatherDisplay:10.37,2013-05-23 18:50:00,
2013-05-23 21:00:00,61.7,56.8,29.67,WSW,258,3.0,12.0,84,0.00,CLR,,0.07,WeatherDisplay:10.37,2013-05-23 19:00:00,
2013-05-23 21:10:00,61.5,56.6,29.67,WSW,256,9.0,15.0,84,0.00,CLR,,0.07,WeatherDisplay:10.37,2013-05-23 19:10:00,
2013-05-23 21:20:00,61.5,56.6,29.68,West,270,6.0,14.0,84,0.00,CLR,,0.07,WeatherDisplay:10.37,2013-05-23 19:20:00,
2013-05-23 21:30:00,61.6,56.4,29.69,West,263,3.0,10.0,83,0.00,CLR,,0.07,WeatherDisplay:10.37,2013-05-23 19:30:00,
2013-05-23 21:40:00,61.5,56.3,29.70,West,261,6.0,14.0,83,0.00,CLR,,0.07,WeatherDisplay:10.37,2013-05-23 19:40:00,
2013-05-23 21:50:00,61.5,56.3,29.70,SW,231,3.0,12.0,83,0.00,CLR,,0.07,WeatherDisplay:10.37,2013-05-23 19:50:00,
2013-05-23 22:00:00,61.0,55.8,29.70,West,260,7.0,12.0,83,0.01,RA,,0.08,WeatherDisplay:10.37,2013-05-23 20:00:00,
2013-05-23 22:10:00,60.4,56.5,29.70,WSW,249,5.0,16.0,87,0.03,RA,,0.11,WeatherDisplay:10.37,2013-05-23 20:10:00,
2013-05-23 22:20:00,60.4,56.5,29.71,WSW,242,8.0,16.0,87,0.01,RA,,0.12,WeatherDisplay:10.37,2013-05-23 20:20:00,
2013-05-23 22:30:00,60.8,56.5,29.71,West,265,10.0,20.0,86,0.00,CLR,,0.12,WeatherDisplay:10.37,2013-05-23 20:30:00,
2013-05-23 22:40:00,61.0,56.5,29.71,WSW,250,8.0,17.0,85,0.00,CLR,,0.12,WeatherDisplay:10.37,2013-05-23 20:40:00,
2013-05-23 22:50:00,61.0,56.8,29.72,WSW,257,8.0,20.0,86,0.00,CLR,,0.12,WeatherDisplay:10.37,2013-05-23 20:50:00,
2013-05-23 23:00:00,61.2,56.3,29.72,WSW,237,9.0,24.0,84,0.00,CLR,,0.12,WeatherDisplay:10.37,2013-05-23 21:00:00,
2013-05-23 23:10:00,61.3,56.4,29.72,West,265,8.0,14.0,84,0.00,CLR,,0.12,WeatherDisplay:10.37,2013-05-23 21:10:00,
2013-05-23 23:20:00,61.3,56.8,29.73,WSW,248,5.0,17.0,85,0.00,CLR,,0.12,WeatherDisplay:10.37,2013-05-23 21:20:00,
2013-05-23 23:30:00,61.2,57.0,29.73,WSW,251,8.0,17.0,86,0.00,CLR,,0.12,WeatherDisplay:10.37,2013-05-23 21:30:00,
2013-05-23 23:40:00,61.1,56.9,29.73,WSW,244,10.0,20.0,86,0.00,CLR,,0.12,WeatherDisplay:10.37,2013-05-23 21:40:00,
2013-05-23 23:50:00,60.9,56.7,29.74,West,271,3.0,20.0,86,0.00,CLR,,0.12,WeatherDisplay:10.37,2013-05-23 21:50:00,